Time,TemperatureF,DewpointF,PressureIn,WindDirection,WindDirectionDegrees,WindSpeedMPH,WindSpeedGustMPH,Humidity,HourlyPrecipIn,Conditions,Clouds,dailyrainin,SolarRadiationWatts/m^2,SoftwareType,DateUTC
2013-03-25 00:04:00,39.0,99.9,29.98,NNW,337,0.0,0.0,0,0.00,CLR,SKC,0.00,0.0,WeatherDisplay:10.37,2013-03-25 07:04:00,
2013-03-25 00:09:00,39.0,99.9,29.98,NNW,337,0.0,0.0,0,0.00,CLR,SKC,0.00,0.0,WeatherDisplay:10.37,2013-03-25 07:09:00,
2013-03-25 00:14:00,39.0,99.9,29.98,NNW,337,0.0,0.0,0,0.00,CLR,SKC,0.00,0.0,WeatherDisplay:10.37,2013-03-25 07:14:00,
2013-03-25 00:19:00,39.0,99.9,29.98,NNW,337,0.0,0.0,0,0.00,CLR,SKC,0.00,0.0,WeatherDisplay:10.37,2013-03-25 07:19:00,
2013-03-25 00:24:00,39.0,99.9,29.98,NNW,337,0.0,0.0,0,0.00,CLR,SKC,0.00,0.0,WeatherDisplay:10.37,2013-03-25 07:24:00,
2013-03-25 00:29:00,38.0,99.9,29.98,ENE,67,0.0,0.0,0,0.00,CLR,SKC,0.00,0.0,WeatherDisplay:10.37,2013-03-25 07:29:00,
2013-03-25 00:34:00,38.0,99.9,29.98,ENE,67,0.0,0.0,0,0.00,CLR,SKC,0.00,0.0,WeatherDisplay:10.37,2013-03-25 07:34:00,
2013-03-25 00:39:00,37.0,99.9,29.97,North,360,0.0,0.0,0,0.00,CLR,SKC,0.00,0.0,WeatherDisplay:10.37,2013-03-25 07:39:00,
2013-03-25 00:44:00,37.0,99.9,29.97,North,360,0.0,0.0,0,0.00,CLR,SKC,0.00,0.0,WeatherDisplay:10.37,2013-03-25 07:44:00,
2013-03-25 00:49:00,37.0,99.9,29.97,North,360,0.0,0.0,0,0.00,CLR,SKC,0.00,0.0,WeatherDisplay:10.37,2013-03-25 07:49:00,
2013-03-25 00:54:00,37.0,99.9,29.97,North,360,0.0,0.0,0,0.00,CLR,SKC,0.00,0.0,WeatherDisplay:10.37,2013-03-25 07:54:00,
2013-03-25 00:59:00,37.0,99.9,29.97,NE,45,1.2,1.2,0,0.00,CLR,SKC,0.00,0.0,WeatherDisplay:10.37,2013-03-25 07:59:00,
2013-03-25 01:04:00,37.0,99.9,29.97,NE,45,0.0,0.0,0,0.00,CLR,SKC,0.00,0.0,WeatherDisplay:10.37,2013-03-25 08:04:00,
2013-03-25 01:09:00,38.0,99.9,29.97,ENE,67,2.3,2.3,0,0.00,CLR,SKC,0.00,0.0,WeatherDisplay:10.37,2013-03-25 08:09:00,
2013-03-25 01:14:00,38.0,99.9,29.97,ENE,67,1.2,1.2,0,0.00,CLR,SKC,0.00,0.0,WeatherDisplay:10.37,2013-03-25 08:14:00,
2013-03-25 01:19:00,38.0,99.9,29.97,NNE,22,1.2,0.0,0,0.00,CLR,SKC,0.00,0.0,WeatherDisplay:10.37,2013-03-25 08:19:00,
2013-03-25 01:24:00,39.0,99.9,29.97,NE,45,0.0,0.0,0,0.00,CLR,SKC,0.00,0.0,WeatherDisplay:10.37,2013-03-25 08:24:00,
2013-03-25 01:29:00,39.0,99.9,29.97,NE,45,0.0,0.0,0,0.00,CLR,SKC,0.00,0.0,WeatherDisplay:10.37,2013-03-25 08:29:00,
2013-03-25 01:34:00,38.0,99.9,29.97,NE,45,0.0,0.0,0,0.00,CLR,SKC,0.00,0.0,WeatherDisplay:10.37,2013-03-25 08:34:00,
2013-03-25 01:39:00,38.0,99.9,29.97,NNE,22,0.0,0.0,0,0.00,CLR,SKC,0.00,0.0,WeatherDisplay:10.37,2013-03-25 08:39:00,
2013-03-25 01:44:00,38.0,99.9,29.97,NNE,22,0.0,0.0,0,0.00,CLR,SKC,0.00,0.0,WeatherDisplay:10.37,2013-03-25 08:44:00,
2013-03-25 01:49:00,38.0,99.9,29.97,NE,45,0.0,0.0,0,0.00,CLR,SKC,0.00,0.0,WeatherDisplay:10.37,2013-03-25 08:49:00,
2013-03-25 01:54:00,38.0,99.9,29.96,ENE,67,2.3,2.3,0,0.00,CLR,SKC,0.00,0.0,WeatherDisplay:10.37,2013-03-25 08:54:00,
2013-03-25 01:59:00,39.0,99.9,29.96,East,90,2.3,2.3,0,0.00,CLR,SKC,0.00,0.0,WeatherDisplay:10.37,2013-03-25 08:59:00,
2013-03-25 02:04:00,40.0,99.9,29.97,NE,45,2.3,0.0,0,0.00,CLR,SKC,0.00,0.0,WeatherDisplay:10.37,2013-03-25 09:04:00,
2013-03-25 02:09:00,40.0,99.9,29.97,ENE,67,0.0,0.0,0,0.00,CLR,SKC,0.00,0.0,WeatherDisplay:10.37,2013-03-25 09:09:00,
2013-03-25 02:14:00,39.0,99.9,29.97,North,360,0.0,0.0,0,0.00,CLR,SKC,0.00,0.0,WeatherDisplay:10.37,2013-03-25 09:14:00,
2013-03-25 02:19:00,39.0,99.9,29.97,NNE,22,0.0,0.0,0,0.00,CLR,SKC,0.00,0.0,WeatherDisplay:10.37,2013-03-25 09:19:00,
2013-03-25 02:24:00,39.0,99.9,29.96,NNE,22,0.0,0.0,0,0.00,CLR,SKC,0.00,0.0,WeatherDisplay:10.37,2013-03-25 09:24:00,
2013-03-25 02:29:00,39.0,99.9,29.96,ENE,67,1.2,0.0,0,0.00,CLR,SKC,0.00,0.0,WeatherDisplay:10.37,2013-03-25 09:29:00,
2013-03-25 02:34:00,39.0,99.9,29.96,ENE,67,0.0,0.0,0,0.00,CLR,SKC,0.00,0.0,WeatherDisplay:10.37,2013-03-25 09:34:00,
2013-03-25 02:39:00,39.0,99.9,29.96,ENE,67,0.0,0.0,0,0.00,CLR,SKC,0.00,0.0,WeatherDisplay:10.37,2013-03-25 09:39:00,
2013-03-25 02:44:00,39.0,99.9,29.96,ENE,67,0.0,0.0,0,0.00,CLR,SKC,0.00,0.0,WeatherDisplay:10.37,2013-03-25 09:44:00,
2013-03-25 02:49:00,39.0,99.9,29.96,NE,45,0.0,0.0,0,0.00,CLR,SKC,0.00,0.0,WeatherDisplay:10.37,2013-03-25 09:49:00,
2013-03-25 02:54:00,40.0,99.9,29.96,NE,45,4.6,4.6,0,0.00,CLR,SKC,0.00,0.0,WeatherDisplay:10.37,2013-03-25 09:54:00,
2013-03-25 02:59:00,40.0,99.9,29.96,ENE,67,3.5,3.5,0,0.00,CLR,SKC,0.00,0.0,WeatherDisplay:10.37,2013-03-25 09:59:00,
2013-03-25 03:04:00,41.0,99.9,29.96,East,90,0.0,0.6,0,0.00,CLR,SKC,0.00,0.0,WeatherDisplay:10.37,2013-03-25 10:04:00,
2013-03-25 03:09:00,41.0,99.9,29.96,NE,45,2.3,2.3,0,0.00,CLR,SKC,0.00,0.0,WeatherDisplay:10.37,2013-03-25 10:09:00,
2013-03-25 03:14:00,41.0,99.9,29.96,ENE,67,3.5,3.5,0,0.00,CLR,SKC,0.00,0.0,WeatherDisplay:10.37,2013-03-25 10:14:00,
2013-03-25 03:19:00,41.0,99.9,29.96,ESE,112,0.0,0.0,0,0.00,CLR,SKC,0.00,0.0,WeatherDisplay:10.37,2013-03-25 10:19:00,
2013-03-25 03:24:00,40.0,99.9,29.96,ESE,112,0.0,0.0,0,0.00,CLR,SKC,0.00,0.0,WeatherDisplay:10.37,2013-03-25 10:24:00,
2013-03-25 03:29:00,40.0,99.9,29.96,ESE,112,0.0,0.0,0,0.00,CLR,SKC,0.00,0.0,WeatherDisplay:10.37,2013-03-25 10:29:00,
2013-03-25 03:34:00,40.0,99.9,29.96,NNE,22,1.2,0.0,0,0.00,CLR,SKC,0.00,0.0,WeatherDisplay:10.37,2013-03-25 10:34:00,
2013-03-25 03:39:00,40.0,99.9,29.96,NNE,22,0.0,0.0,0,0.00,CLR,SKC,0.00,0.0,WeatherDisplay:10.37,2013-03-25 10:39:00,
2013-03-25 03:44:00,40.0,99.9,29.96,NNE,22,0.0,0.0,0,0.00,CLR,SKC,0.00,0.0,WeatherDisplay:10.37,2013-03-25 10:44:00,
2013-03-25 03:49:00,40.0,99.9,29.96,NE,45,1.2,0.0,0,0.00,CLR,SKC,0.00,0.0,WeatherDisplay:10.37,2013-03-25 10:49:00,
2013-03-25 03:54:00,40.0,99.9,29.96,ESE,112,0.0,0.0,0,0.00,CLR,SKC,0.00,0.0,WeatherDisplay:10.37,2013-03-25 10:54:00,
2013-03-25 04:00:00,40.0,99.9,29.96,NE,45,4.6,4.6,0,0.00,CLR,SKC,0.00,0.0,WeatherDisplay:10.37,2013-03-25 11:00:00,
2013-03-25 04:06:00,41.0,99.9,29.96,ENE,67,3.5,3.5,0,0.00,CLR,SKC,0.00,0.0,WeatherDisplay:10.37,2013-03-25 11:06:00,
2013-03-25 04:11:00,41.0,99.9,29.96,East,90,5.0,5.0,0,0.00,CLR,SKC,0.00,0.0,WeatherDisplay:10.37,2013-03-25 11:11:00,
2013-03-25 04:17:00,41.0,99.9,29.96,East,90,4.6,4.6,0,0.00,CLR,SKC,0.00,0.0,WeatherDisplay:10.37,2013-03-25 11:17:00,
2013-03-25 04:22:00,41.0,99.9,29.96,East,90,5.8,5.8,0,0.00,CLR,SKC,0.00,0.0,WeatherDisplay:10.37,2013-03-25 11:22:00,
2013-03-25 04:28:00,41.0,99.9,29.96,ESE,112,6.9,6.9,0,0.00,CLR,SKC,0.00,0.0,WeatherDisplay:10.37,2013-03-25 11:28:00,
2013-03-25 04:33:00,41.0,99.9,29.96,East,90,9.2,9.2,0,0.00,CLR,SKC,0.00,0.0,WeatherDisplay:10.37,2013-03-25 11:33:00,
2013-03-25 04:38:00,41.0,99.9,29.96,SE,135,4.6,4.6,0,0.00,CLR,SKC,0.00,0.0,WeatherDisplay:10.37,2013-03-25 11:38:00,
2013-03-25 04:43:00,41.0,99.9,29.96,East,90,6.0,6.0,0,0.00,CLR,SKC,0.00,0.0,WeatherDisplay:10.37,2013-03-25 11:43:00,
2013-03-25 04:48:00,41.0,-53.0,29.96,ESE,112,5.8,5.8,1,0.00,CLR,SKC,0.00,0.0,WeatherDisplay:10.37,2013-03-25 11:48:00,
2013-03-25 04:53:00,41.0,99.9,29.96,East,90,6.9,6.9,0,0.00,CLR,SKC,0.00,0.0,WeatherDisplay:10.37,2013-03-25 11:53:00,
2013-03-25 04:58:00,41.0,-41.5,29.96,ESE,112,7.0,7.0,2,0.00,CLR,SKC,0.00,0.0,WeatherDisplay:10.37,2013-03-25 11:58:00,
2013-03-25 05:03:00,41.0,99.9,29.96,ESE,112,6.9,6.9,0,0.00,CLR,SKC,0.00,0.0,WeatherDisplay:10.37,2013-03-25 12:03:00,
2013-03-25 05:08:00,41.0,99.9,29.96,East,90,5.8,5.8,0,0.00,CLR,SKC,0.00,0.0,WeatherDisplay:10.37,2013-03-25 12:08:00,
2013-03-25 05:13:00,41.0,99.9,29.96,ESE,112,5.8,5.8,0,0.00,CLR,SKC,0.00,0.0,WeatherDisplay:10.37,2013-03-25 12:13:00,
2013-03-25 05:18:00,41.0,99.9,29.96,SE,135,8.1,8.1,0,0.00,CLR,SKC,0.00,0.0,WeatherDisplay:10.37,2013-03-25 12:18:00,
2013-03-25 05:23:00,41.0,99.9,29.96,SSE,157,6.9,6.9,0,0.00,CLR,SKC,0.00,0.0,WeatherDisplay:10.37,2013-03-25 12:23:00,
2013-03-25 05:28:00,40.0,99.9,29.96,East,90,4.6,4.6,0,0.00,CLR,SKC,0.00,0.0,WeatherDisplay:10.37,2013-03-25 12:28:00,
2013-03-25 05:34:00,40.0,99.9,29.96,ESE,112,0.0,0.0,0,0.00,CLR,SKC,0.00,0.0,WeatherDisplay:10.37,2013-03-25 12:34:00,
2013-03-25 05:39:00,40.0,99.9,29.96,East,90,0.0,0.0,0,0.00,CLR,SKC,0.00,0.0,WeatherDisplay:10.37,2013-03-25 12:39:00,
2013-03-25 05:44:00,39.0,99.9,29.96,ENE,67,0.0,0.0,0,0.00,CLR,SKC,0.00,0.0,WeatherDisplay:10.37,2013-03-25 12:44:00,
2013-03-25 05:49:00,39.0,99.9,29.95,NNE,22,0.0,0.0,0,0.00,CLR,SKC,0.00,0.0,WeatherDisplay:10.37,2013-03-25 12:49:00,
2013-03-25 05:54:00,38.0,99.9,29.95,NNE,22,0.0,0.0,0,0.00,CLR,SKC,0.00,0.0,WeatherDisplay:10.37,2013-03-25 12:54:00,
2013-03-25 05:59:00,38.0,99.9,29.95,NNE,22,0.0,0.0,0,0.00,CLR,SKC,0.00,0.0,WeatherDisplay:10.37,2013-03-25 12:59:00,
2013-03-25 06:04:00,38.0,99.9,29.95,WNW,292,0.0,0.0,0,0.00,CLR,SKC,0.00,0.0,WeatherDisplay:10.37,2013-03-25 13:04:00,
2013-03-25 06:09:00,38.0,99.9,29.95,WNW,292,0.0,0.0,0,0.00,CLR,SKC,0.00,0.0,WeatherDisplay:10.37,2013-03-25 13:09:00,
2013-03-25 06:14:00,37.0,99.9,29.95,WNW,292,0.0,0.0,0,0.00,CLR,SKC,0.00,0.0,WeatherDisplay:10.37,2013-03-25 13:14:00,
2013-03-25 06:19:00,37.0,99.9,29.95,WNW,292,0.0,0.0,0,0.00,CLR,SKC,0.00,0.0,WeatherDisplay:10.37,2013-03-25 13:19:00,
2013-03-25 06:24:00,37.0,99.9,29.95,WNW,292,2.3,2.3,0,0.00,CLR,SKC,0.00,0.0,WeatherDisplay:10.37,2013-03-25 13:24:00,
2013-03-25 06:29:00,37.0,99.9,29.94,NW,315,0.0,0.0,0,0.00,CLR,SKC,0.00,0.0,WeatherDisplay:10.37,2013-03-25 13:29:00,
2013-03-25 06:34:00,36.0,99.9,29.94,NW,315,0.0,0.0,0,0.00,CLR,SKC,0.00,0.0,WeatherDisplay:10.37,2013-03-25 13:34:00,
2013-03-25 06:39:00,36.0,99.9,29.94,NW,315,0.0,0.0,0,0.00,CLR,SKC,0.00,0.0,WeatherDisplay:10.37,2013-03-25 13:39:00,
2013-03-25 06:44:00,36.0,99.9,29.94,NW,315,0.0,0.0,0,0.00,CLR,SKC,0.00,0.0,WeatherDisplay:10.37,2013-03-25 13:44:00,
2013-03-25 06:49:00,35.0,99.9,29.94,NNW,337,0.0,0.0,0,0.00,CLR,SKC,0.00,0.0,WeatherDisplay:10.37,2013-03-25 13:49:00,
2013-03-25 06:54:00,36.0,99.9,29.94,NNW,337,0.0,0.0,0,0.00,CLR,SKC,0.00,0.0,WeatherDisplay:10.37,2013-03-25 13:54:00,
2013-03-25 06:59:00,36.0,99.9,29.94,NNW,337,0.0,0.0,0,0.00,CLR,SKC,0.00,0.0,WeatherDisplay:10.37,2013-03-25 13:59:00,
2013-03-25 07:04:00,35.0,99.9,29.94,NNW,337,0.0,0.0,0,0.00,OVC,SKC,0.00,0.0,WeatherDisplay:10.37,2013-03-25 14:04:00,
2013-03-25 07:09:00,35.0,99.9,29.94,NNW,337,0.0,0.0,0,0.00,OVC,SKC,0.00,0.0,WeatherDisplay:10.37,2013-03-25 14:09:00,
2013-03-25 07:14:00,35.0,99.9,29.94,NNW,337,0.0,0.0,0,0.00,OVC,SKC,0.00,0.0,WeatherDisplay:10.37,2013-03-25 14:14:00,
2013-03-25 07:19:00,35.0,99.9,29.94,NNW,337,0.0,0.0,0,0.00,OVC,SKC,0.00,0.0,WeatherDisplay:10.37,2013-03-25 14:19:00,
2013-03-25 07:24:00,35.0,99.9,29.94,NNW,337,0.0,0.0,0,0.00,OVC,SKC,0.00,0.0,WeatherDisplay:10.37,2013-03-25 14:24:00,
2013-03-25 07:29:00,35.0,99.9,29.94,NNW,337,0.0,0.0,0,0.00,OVC,SKC,0.00,0.0,WeatherDisplay:10.37,2013-03-25 14:29:00,
2013-03-25 07:34:00,35.0,99.9,29.94,NNW,337,0.0,0.0,0,0.00,OVC,SKC,0.00,0.0,WeatherDisplay:10.37,2013-03-25 14:34:00,
2013-03-25 07:39:00,35.0,99.9,29.94,NNW,337,0.0,0.0,0,0.00,OVC,SKC,0.00,0.0,WeatherDisplay:10.37,2013-03-25 14:39:00,
2013-03-25 07:44:00,36.0,99.9,29.94,NNW,337,0.0,0.0,0,0.00,OVC,SKC,0.00,0.0,WeatherDisplay:10.37,2013-03-25 14:44:00,
2013-03-25 07:49:00,37.0,99.9,29.94,NNW,337,0.0,0.0,0,0.00,OVC,SKC,0.00,0.0,WeatherDisplay:10.37,2013-03-25 14:49:00,
2013-03-25 07:54:00,38.0,99.9,29.94,NNW,337,0.0,0.0,0,0.00,OVC,SKC,0.00,0.0,WeatherDisplay:10.37,2013-03-25 14:54:00,
2013-03-25 07:59:00,39.0,99.9,29.95,NNW,337,0.0,0.0,0,0.00,OVC,SKC,0.00,0.0,WeatherDisplay:10.37,2013-03-25 14:59:00,
2013-03-25 08:04:00,40.0,99.9,29.95,NNW,337,0.0,0.0,0,0.00,OVC,SKC,0.00,0.0,WeatherDisplay:10.37,2013-03-25 15:04:00,
2013-03-25 08:09:00,41.0,99.9,29.95,NNW,337,0.0,0.0,0,0.00,OVC,SKC,0.00,0.0,WeatherDisplay:10.37,2013-03-25 15:09:00,
2013-03-25 08:14:00,42.0,99.9,29.95,NNW,337,0.0,0.0,0,0.00,OVC,SKC,0.00,0.0,WeatherDisplay:10.37,2013-03-25 15:14:00,
2013-03-25 08:19:00,43.0,99.9,29.96,NNW,337,0.0,0.0,0,0.00,OVC,SKC,0.00,0.0,WeatherDisplay:10.37,2013-03-25 15:19:00,
2013-03-25 08:24:00,45.0,99.9,29.96,NNW,337,0.0,0.0,0,0.00,OVC,SKC,0.00,0.0,WeatherDisplay:10.37,2013-03-25 15:24:00,
2013-03-25 08:29:00,45.0,99.9,29.96,East,90,0.0,0.0,0,0.00,OVC,SKC,0.00,0.0,WeatherDisplay:10.37,2013-03-25 15:29:00,
2013-03-25 08:34:00,45.0,99.9,29.97,East,90,0.0,0.0,0,0.00,OVC,SKC,0.00,0.0,WeatherDisplay:10.37,2013-03-25 15:34:00,
2013-03-25 08:39:00,45.0,99.9,29.97,East,90,0.0,0.0,0,0.00,OVC,SKC,0.00,0.0,WeatherDisplay:10.37,2013-03-25 15:39:00,
2013-03-25 08:44:00,46.0,99.9,29.97,NNE,22,0.0,0.0,0,0.00,OVC,SKC,0.00,0.0,WeatherDisplay:10.37,2013-03-25 15:44:00,
2013-03-25 08:49:00,47.0,99.9,29.97,NE,45,0.0,0.0,0,0.00,OVC,SKC,0.00,0.0,WeatherDisplay:10.37,2013-03-25 15:49:00,
2013-03-25 08:54:00,46.0,99.9,29.97,East,90,3.5,3.5,0,0.00,OVC,SKC,0.00,0.0,WeatherDisplay:10.37,2013-03-25 15:54:00,
2013-03-25 08:59:00,45.0,99.9,29.97,East,90,3.5,3.5,0,0.00,OVC,SKC,0.00,0.0,WeatherDisplay:10.37,2013-03-25 15:59:00,
2013-03-25 09:04:00,45.0,99.9,29.98,SE,135,3.5,3.5,0,0.00,OVC,SKC,0.00,0.0,WeatherDisplay:10.37,2013-03-25 16:04:00,
2013-03-25 09:09:00,46.0,99.9,29.98,ESE,112,0.0,0.0,0,0.00,OVC,SKC,0.00,0.0,WeatherDisplay:10.37,2013-03-25 16:09:00,
2013-03-25 09:14:00,46.0,99.9,29.98,East,90,0.0,0.0,0,0.00,OVC,SKC,0.00,0.0,WeatherDisplay:10.37,2013-03-25 16:14:00,
2013-03-25 09:19:00,46.0,99.9,29.98,ENE,67,3.5,3.5,0,0.00,OVC,SKC,0.00,0.0,WeatherDisplay:10.37,2013-03-25 16:19:00,
2013-03-25 09:24:00,46.0,99.9,29.98,East,90,3.5,3.5,0,0.00,OVC,SKC,0.00,0.0,WeatherDisplay:10.37,2013-03-25 16:24:00,
2013-03-25 09:30:00,46.0,99.9,29.98,ENE,67,3.5,3.5,0,0.00,OVC,SKC,0.00,0.0,WeatherDisplay:10.37,2013-03-25 16:30:00,
2013-03-25 09:35:00,47.0,99.9,29.98,East,90,0.0,0.0,0,0.00,OVC,SKC,0.00,0.0,WeatherDisplay:10.37,2013-03-25 16:35:00,
2013-03-25 09:40:00,47.0,99.9,29.98,SE,135,0.0,0.0,0,0.00,OVC,SKC,0.00,0.0,WeatherDisplay:10.37,2013-03-25 16:40:00,
2013-03-25 09:45:00,48.0,99.9,29.98,ENE,67,0.0,0.0,0,0.00,OVC,SKC,0.00,0.0,WeatherDisplay:10.37,2013-03-25 16:45:00,
2013-03-25 09:50:00,50.0,-11.9,29.98,ENE,67,0.0,0.0,7,0.00,OVC,SKC,0.00,0.0,WeatherDisplay:10.37,2013-03-25 16:50:00,
2013-03-25 09:55:00,50.0,18.1,29.99,South,180,0.0,0.0,28,0.00,OVC,SKC,0.00,0.0,WeatherDisplay:10.37,2013-03-25 16:55:00,
2013-03-25 10:00:00,50.0,33.1,29.99,SE,135,0.0,0.0,52,0.00,OVC,SKC,0.00,0.0,WeatherDisplay:10.37,2013-03-25 17:00:00,
2013-03-25 10:05:00,50.0,41.7,29.99,SSW,202,0.0,0.0,73,0.00,OVC,SKC,0.00,0.0,WeatherDisplay:10.37,2013-03-25 17:05:00,
2013-03-25 10:10:00,49.0,40.7,29.99,East,90,0.0,0.0,73,0.00,OVC,SKC,0.00,0.0,WeatherDisplay:10.37,2013-03-25 17:10:00,
2013-03-25 10:15:00,50.0,42.0,29.99,NNW,337,0.0,0.0,74,0.00,OVC,SKC,0.00,0.0,WeatherDisplay:10.37,2013-03-25 17:15:00,
2013-03-25 10:20:00,50.0,39.5,29.99,ESE,112,0.0,0.0,67,0.00,OVC,SKC,0.00,0.0,WeatherDisplay:10.37,2013-03-25 17:20:00,
2013-03-25 10:25:00,50.0,39.8,29.99,South,180,0.0,0.0,68,0.00,OVC,SKC,0.00,0.0,WeatherDisplay:10.37,2013-03-25 17:25:00,
2013-03-25 10:30:00,50.0,36.7,29.99,ENE,67,5.8,5.8,60,0.00,OVC,SKC,0.00,0.0,WeatherDisplay:10.37,2013-03-25 17:30:00,
2013-03-25 10:35:00,50.0,38.7,29.99,ENE,67,0.0,0.0,65,0.00,OVC,SKC,0.00,0.0,WeatherDisplay:10.37,2013-03-25 17:35:00,
2013-03-25 10:40:00,50.0,37.5,29.99,NE,45,0.0,0.0,62,0.00,OVC,SKC,0.00,0.0,WeatherDisplay:10.37,2013-03-25 17:40:00,
2013-03-25 10:46:00,49.0,34.4,29.99,East,90,0.0,0.0,57,0.00,OVC,SKC,0.00,0.0,WeatherDisplay:10.37,2013-03-25 17:46:00,
2013-03-25 10:51:00,49.0,36.1,29.99,ENE,67,0.0,0.0,61,0.00,OVC,SKC,0.00,0.0,WeatherDisplay:10.37,2013-03-25 17:51:00,
2013-03-25 10:56:00,50.0,35.8,29.99,NE,45,0.0,0.0,58,0.00,OVC,SKC,0.00,0.0,WeatherDisplay:10.37,2013-03-25 17:56:00,
2013-03-25 11:01:00,50.0,34.5,29.99,ENE,67,0.0,0.0,55,0.00,OVC,SKC,0.00,0.0,WeatherDisplay:10.37,2013-03-25 18:01:00,
2013-03-25 11:06:00,51.0,34.5,29.98,ESE,112,0.0,0.0,53,0.00,OVC,SKC,0.00,0.0,WeatherDisplay:10.37,2013-03-25 18:06:00,
2013-03-25 11:12:00,51.0,34.9,29.98,SSE,157,0.0,0.0,54,0.00,OVC,SKC,0.00,0.0,WeatherDisplay:10.37,2013-03-25 18:12:00,
2013-03-25 11:17:00,51.0,35.4,29.98,ESE,112,0.0,0.0,55,0.00,OVC,SKC,0.00,0.0,WeatherDisplay:10.37,2013-03-25 18:17:00,
2013-03-25 11:22:00,51.0,34.5,29.98,ESE,112,0.0,0.0,53,0.00,OVC,SKC,0.00,0.0,WeatherDisplay:10.37,2013-03-25 18:22:00,
2013-03-25 11:27:00,52.0,37.2,29.98,SE,135,0.0,0.0,57,0.00,OVC,SKC,0.00,0.0,WeatherDisplay:10.37,2013-03-25 18:27:00,
2013-03-25 11:33:00,52.0,39.0,29.98,ESE,112,1.2,0.0,61,0.00,OVC,SKC,0.00,0.0,WeatherDisplay:10.37,2013-03-25 18:33:00,
2013-03-25 11:38:00,51.0,34.0,29.98,ESE,112,0.0,0.0,52,0.00,OVC,SKC,0.00,0.0,WeatherDisplay:10.37,2013-03-25 18:38:00,
2013-03-25 11:43:00,52.0,35.9,29.98,SSE,157,0.0,0.0,54,0.00,OVC,SKC,0.00,0.0,WeatherDisplay:10.37,2013-03-25 18:43:00,
2013-03-25 11:48:00,52.0,36.3,29.98,SE,135,0.0,0.0,55,0.00,OVC,SKC,0.00,0.0,WeatherDisplay:10.37,2013-03-25 18:48:00,
2013-03-25 11:53:00,52.0,35.9,29.98,SSE,157,0.0,0.0,54,0.00,OVC,SKC,0.00,0.0,WeatherDisplay:10.37,2013-03-25 18:53:00,
2013-03-25 11:58:00,52.0,34.4,29.98,SSE,157,0.0,0.0,51,0.00,OVC,SKC,0.00,0.0,WeatherDisplay:10.37,2013-03-25 18:58:00,
2013-03-25 12:03:00,52.0,36.3,29.98,ESE,112,0.0,0.0,55,0.00,OVC,SKC,0.00,0.0,WeatherDisplay:10.37,2013-03-25 19:03:00,
2013-03-25 12:08:00,53.0,36.8,29.98,SE,135,0.0,0.0,54,0.00,OVC,SKC,0.00,0.0,WeatherDisplay:10.37,2013-03-25 19:08:00,
2013-03-25 12:13:00,52.0,34.4,29.98,East,90,0.0,0.0,51,0.00,OVC,SKC,0.00,0.0,WeatherDisplay:10.37,2013-03-25 19:13:00,
2013-03-25 12:18:00,52.0,33.4,29.98,East,90,0.0,0.0,49,0.00,OVC,SKC,0.00,0.0,WeatherDisplay:10.37,2013-03-25 19:18:00,
2013-03-25 12:23:00,52.0,33.4,29.97,ENE,67,0.0,0.0,49,0.00,OVC,SKC,0.00,0.0,WeatherDisplay:10.37,2013-03-25 19:23:00,
2013-03-25 12:28:00,53.0,34.3,29.97,East,90,0.0,0.0,49,0.00,OVC,SKC,0.00,0.0,WeatherDisplay:10.37,2013-03-25 19:28:00,
2013-03-25 12:33:00,53.0,33.3,29.97,East,90,0.0,0.0,47,0.00,OVC,SKC,0.00,0.0,WeatherDisplay:10.37,2013-03-25 19:33:00,
2013-03-25 12:38:00,54.0,33.7,29.97,SE,135,0.0,0.0,46,0.00,OVC,SKC,0.00,0.0,WeatherDisplay:10.37,2013-03-25 19:38:00,
2013-03-25 12:43:00,55.0,36.2,29.97,SE,135,0.0,0.0,49,0.00,OVC,SKC,0.00,0.0,WeatherDisplay:10.37,2013-03-25 19:43:00,
2013-03-25 12:48:00,56.0,33.2,29.97,NE,45,0.0,0.0,42,0.00,OVC,SKC,0.00,0.0,WeatherDisplay:10.37,2013-03-25 19:48:00,
2013-03-25 12:53:00,55.0,31.7,29.97,NW,315,0.0,0.0,41,0.00,OVC,SKC,0.00,0.0,WeatherDisplay:10.37,2013-03-25 19:53:00,
2013-03-25 12:58:00,55.0,33.5,29.96,WSW,247,0.0,0.0,44,0.00,OVC,SKC,0.00,0.0,WeatherDisplay:10.37,2013-03-25 19:58:00,
2013-03-25 13:03:00,55.0,36.2,29.96,NNE,22,0.0,0.0,49,0.00,OVC,SKC,0.00,0.0,WeatherDisplay:10.37,2013-03-25 20:03:00,
2013-03-25 13:08:00,54.0,36.3,29.96,WNW,292,0.0,0.0,51,0.00,OVC,SKC,0.00,0.0,WeatherDisplay:10.37,2013-03-25 20:08:00,
2013-03-25 13:13:00,55.0,36.7,29.96,South,180,0.0,0.0,50,0.00,OVC,SKC,0.00,0.0,WeatherDisplay:10.37,2013-03-25 20:13:00,
2013-03-25 13:18:00,53.0,34.8,29.96,West,270,0.0,0.0,50,0.00,OVC,SKC,0.00,0.0,WeatherDisplay:10.37,2013-03-25 20:18:00,
2013-03-25 13:23:00,54.0,37.7,29.96,NW,315,0.0,0.0,54,0.00,OVC,SKC,0.00,0.0,WeatherDisplay:10.37,2013-03-25 20:23:00,
2013-03-25 13:28:00,53.0,36.3,29.96,SSW,202,0.0,0.0,53,0.00,OVC,SKC,0.00,0.0,WeatherDisplay:10.37,2013-03-25 20:28:00,
2013-03-25 13:33:00,54.0,35.3,29.95,NW,315,0.0,0.0,49,0.00,OVC,SKC,0.00,0.0,WeatherDisplay:10.37,2013-03-25 20:33:00,
2013-03-25 13:38:00,54.0,36.3,29.95,West,270,0.0,0.0,51,0.00,OVC,SKC,0.00,0.0,WeatherDisplay:10.37,2013-03-25 20:38:00,
2013-03-25 13:43:00,55.0,34.0,29.95,North,360,0.0,0.0,45,0.00,OVC,SKC,0.00,0.0,WeatherDisplay:10.37,2013-03-25 20:43:00,
2013-03-25 13:48:00,55.0,34.0,29.95,North,360,0.0,0.0,45,0.00,OVC,SKC,0.00,0.0,WeatherDisplay:10.37,2013-03-25 20:48:00,
2013-03-25 13:53:00,55.0,35.7,29.95,WNW,292,0.0,0.0,48,0.00,OVC,SKC,0.00,0.0,WeatherDisplay:10.37,2013-03-25 20:53:00,
2013-03-25 13:58:00,55.0,32.9,29.95,WSW,247,0.0,0.0,43,0.00,OVC,SKC,0.00,0.0,WeatherDisplay:10.37,2013-03-25 20:58:00,
2013-03-25 14:03:00,55.0,32.9,29.94,WSW,247,0.0,0.0,43,0.00,OVC,SKC,0.00,0.0,WeatherDisplay:10.37,2013-03-25 21:03:00,
2013-03-25 14:08:00,55.0,34.6,29.94,WNW,292,0.0,0.0,46,0.00,OVC,SKC,0.00,0.0,WeatherDisplay:10.37,2013-03-25 21:08:00,
2013-03-25 14:13:00,55.0,33.5,29.94,WNW,292,0.0,0.0,44,0.00,OVC,SKC,0.00,0.0,WeatherDisplay:10.37,2013-03-25 21:13:00,
2013-03-25 14:18:00,56.0,33.8,29.94,NNE,22,0.0,0.0,43,0.00,OVC,SKC,0.00,0.0,WeatherDisplay:10.37,2013-03-25 21:18:00,
2013-03-25 14:23:00,57.0,30.3,29.94,North,360,0.0,0.0,36,0.00,OVC,SKC,0.00,0.0,WeatherDisplay:10.37,2013-03-25 21:23:00,
2013-03-25 14:28:00,56.0,28.7,29.94,North,360,0.0,0.0,35,0.00,OVC,SKC,0.00,0.0,WeatherDisplay:10.37,2013-03-25 21:28:00,
2013-03-25 14:33:00,57.0,32.9,29.94,NNW,337,8.1,8.1,40,0.00,OVC,SKC,0.00,0.0,WeatherDisplay:10.37,2013-03-25 21:33:00,
2013-03-25 14:38:00,57.0,31.6,29.94,North,360,6.9,6.9,38,0.00,OVC,SKC,0.00,0.0,WeatherDisplay:10.37,2013-03-25 21:38:00,
2013-03-25 14:43:00,57.0,33.5,29.93,North,360,0.0,0.0,41,0.00,OVC,SKC,0.00,0.0,WeatherDisplay:10.37,2013-03-25 21:43:00,
2013-03-25 14:48:00,57.0,34.7,29.94,North,360,0.0,0.0,43,0.00,OVC,SKC,0.00,0.0,WeatherDisplay:10.37,2013-03-25 21:48:00,
2013-03-25 14:53:00,57.0,32.3,29.93,North,360,0.0,0.0,39,0.00,OVC,SKC,0.00,0.0,WeatherDisplay:10.37,2013-03-25 21:53:00,
2013-03-25 14:58:00,57.0,31.6,29.93,North,360,0.0,0.0,38,0.00,OVC,SKC,0.00,0.0,WeatherDisplay:10.37,2013-03-25 21:58:00,
2013-03-25 15:03:00,57.0,32.3,29.93,NNE,22,0.0,0.0,39,0.00,OVC,SKC,0.00,0.0,WeatherDisplay:10.37,2013-03-25 22:03:00,
2013-03-25 15:09:00,57.0,31.6,29.93,NNW,337,0.0,0.0,38,0.00,OVC,SKC,0.00,0.0,WeatherDisplay:10.37,2013-03-25 22:09:00,
2013-03-25 15:14:00,57.0,32.3,29.93,North,360,0.0,0.0,39,0.00,OVC,SKC,0.00,0.0,WeatherDisplay:10.37,2013-03-25 22:14:00,
2013-03-25 15:19:00,57.0,30.3,29.93,North,360,0.0,0.0,36,0.00,OVC,SKC,0.00,0.0,WeatherDisplay:10.37,2013-03-25 22:19:00,
2013-03-25 15:24:00,57.0,31.6,29.92,NNE,22,0.0,0.0,38,0.00,OVC,SKC,0.00,0.0,WeatherDisplay:10.37,2013-03-25 22:24:00,
2013-03-25 15:29:00,57.0,32.3,29.92,NW,315,0.0,0.0,39,0.00,OVC,SKC,0.00,0.0,WeatherDisplay:10.37,2013-03-25 22:29:00,
2013-03-25 15:34:00,57.0,31.6,29.92,NW,315,0.0,0.0,38,0.00,OVC,SKC,0.00,0.0,WeatherDisplay:10.37,2013-03-25 22:34:00,
2013-03-25 15:39:00,57.0,32.9,29.92,NW,315,0.0,0.0,40,0.00,OVC,SKC,0.00,0.0,WeatherDisplay:10.37,2013-03-25 22:39:00,
2013-03-25 15:44:00,57.0,32.3,29.92,North,360,0.0,0.0,39,0.00,OVC,SKC,0.00,0.0,WeatherDisplay:10.37,2013-03-25 22:44:00,
2013-03-25 15:49:00,57.0,30.3,29.92,North,360,0.0,0.0,36,0.00,OVC,SKC,0.00,0.0,WeatherDisplay:10.37,2013-03-25 22:49:00,
2013-03-25 15:54:00,58.0,34.4,29.92,NW,315,0.0,0.0,41,0.00,OVC,SKC,0.00,0.0,WeatherDisplay:10.37,2013-03-25 22:54:00,
2013-03-25 16:00:00,58.0,35.0,29.92,West,270,0.0,0.0,42,0.00,OVC,SKC,0.00,0.0,WeatherDisplay:10.37,2013-03-25 23:00:00,
2013-03-25 16:05:00,57.0,37.0,29.92,West,270,0.0,0.0,47,0.00,OVC,SKC,0.00,0.0,WeatherDisplay:10.37,2013-03-25 23:05:00,
2013-03-25 16:10:00,55.0,36.2,29.92,WSW,247,0.0,0.0,49,0.00,OVC,SKC,0.00,0.0,WeatherDisplay:10.37,2013-03-25 23:10:00,
2013-03-25 16:15:00,55.0,36.7,29.92,WNW,292,0.0,0.0,50,0.00,OVC,SKC,0.00,0.0,WeatherDisplay:10.37,2013-03-25 23:15:00,
2013-03-25 16:20:00,55.0,37.2,29.92,West,270,0.0,0.7,51,0.00,OVC,SKC,0.00,0.0,WeatherDisplay:10.37,2013-03-25 23:20:00,
2013-03-25 16:25:00,54.0,35.8,29.92,West,270,3.5,3.5,50,0.00,OVC,SKC,0.00,0.0,WeatherDisplay:10.37,2013-03-25 23:25:00,
2013-03-25 16:30:00,54.0,36.3,29.92,West,270,5.8,5.8,51,0.00,OVC,SKC,0.00,0.0,WeatherDisplay:10.37,2013-03-25 23:30:00,
2013-03-25 16:35:00,54.0,36.3,29.92,WSW,247,4.6,4.6,51,0.00,OVC,SKC,0.00,0.0,WeatherDisplay:10.37,2013-03-25 23:35:00,
2013-03-25 16:40:00,55.0,36.7,29.91,West,270,4.6,4.6,50,0.00,OVC,SKC,0.00,0.0,WeatherDisplay:10.37,2013-03-25 23:40:00,
2013-03-25 16:45:00,55.0,36.2,29.91,West,270,4.6,4.6,49,0.00,OVC,SKC,0.00,0.0,WeatherDisplay:10.37,2013-03-25 23:45:00,
2013-03-25 16:50:00,54.0,35.3,29.91,West,270,5.8,5.8,49,0.00,OVC,SKC,0.00,0.0,WeatherDisplay:10.37,2013-03-25 23:50:00,
2013-03-25 16:55:00,55.0,36.2,29.91,West,270,0.0,0.0,49,0.00,OVC,SKC,0.00,0.0,WeatherDisplay:10.37,2013-03-25 23:55:00,
2013-03-25 17:00:00,55.0,36.2,29.91,West,270,3.5,3.5,49,0.00,OVC,SKC,0.00,0.0,WeatherDisplay:10.37,2013-03-26 00:00:00,
2013-03-25 17:05:00,55.0,35.7,29.91,West,270,3.5,3.5,48,0.00,OVC,SKC,0.00,0.0,WeatherDisplay:10.37,2013-03-26 00:05:00,
2013-03-25 17:10:00,55.0,35.7,29.91,North,360,5.8,5.8,48,0.00,OVC,SKC,0.00,0.0,WeatherDisplay:10.37,2013-03-26 00:10:00,
2013-03-25 17:15:00,56.0,36.6,29.91,North,360,5.8,0.0,48,0.00,OVC,SKC,0.00,0.0,WeatherDisplay:10.37,2013-03-26 00:15:00,
2013-03-25 17:20:00,57.0,35.9,29.91,North,360,0.0,0.0,45,0.00,OVC,SKC,0.00,0.0,WeatherDisplay:10.37,2013-03-26 00:20:00,
2013-03-25 17:25:00,57.0,35.3,29.91,North,360,0.0,0.0,44,0.00,OVC,SKC,0.00,0.0,WeatherDisplay:10.37,2013-03-26 00:25:00,
2013-03-25 17:30:00,56.0,36.6,29.90,West,270,3.5,3.5,48,0.00,OVC,SKC,0.00,0.0,WeatherDisplay:10.37,2013-03-26 00:30:00,
2013-03-25 17:35:00,54.0,34.7,29.90,NW,315,2.3,0.0,48,0.00,OVC,SKC,0.00,0.0,WeatherDisplay:10.37,2013-03-26 00:35:00,
2013-03-25 17:40:00,54.0,36.8,29.90,WNW,292,0.0,0.0,52,0.00,OVC,SKC,0.00,0.0,WeatherDisplay:10.37,2013-03-26 00:40:00,
2013-03-25 17:45:00,52.0,39.0,29.90,WNW,292,0.0,0.0,61,0.00,OVC,SKC,0.00,0.0,WeatherDisplay:10.37,2013-03-26 00:45:00,
2013-03-25 17:50:00,51.0,38.8,29.89,WNW,292,0.0,0.0,63,0.00,OVC,SKC,0.00,0.0,WeatherDisplay:10.37,2013-03-26 00:50:00,
2013-03-25 17:55:00,51.0,40.8,29.89,WNW,292,0.0,0.0,68,0.00,OVC,SKC,0.00,0.0,WeatherDisplay:10.37,2013-03-26 00:55:00,
2013-03-25 18:00:00,50.0,41.0,29.89,WNW,292,0.0,0.0,71,0.00,OVC,SKC,0.00,0.0,WeatherDisplay:10.37,2013-03-26 01:00:00,
2013-03-25 18:05:00,50.0,41.3,29.88,WNW,292,0.0,0.0,72,0.00,OVC,SKC,0.00,0.0,WeatherDisplay:10.37,2013-03-26 01:05:00,
2013-03-25 18:10:00,50.0,41.7,29.88,WNW,292,0.0,0.0,73,0.00,OVC,SKC,0.00,0.0,WeatherDisplay:10.37,2013-03-26 01:10:00,
2013-03-25 18:15:00,50.0,41.7,29.88,WNW,292,0.0,0.0,73,0.00,OVC,SKC,0.00,0.0,WeatherDisplay:10.37,2013-03-26 01:15:00,
2013-03-25 18:20:00,49.0,41.1,29.88,NNW,337,0.0,0.0,74,0.00,OVC,SKC,0.00,0.0,WeatherDisplay:10.37,2013-03-26 01:20:00,
2013-03-25 18:25:00,49.0,41.8,29.88,WNW,292,0.0,0.0,76,0.00,OVC,SKC,0.00,0.0,WeatherDisplay:10.37,2013-03-26 01:25:00,
2013-03-25 18:30:00,49.0,42.1,29.87,WNW,292,0.0,0.0,77,0.00,OVC,SKC,0.00,0.0,WeatherDisplay:10.37,2013-03-26 01:30:00,
2013-03-25 18:35:00,48.0,41.5,29.87,WNW,292,0.0,0.0,78,0.00,OVC,SKC,0.00,0.0,WeatherDisplay:10.37,2013-03-26 01:35:00,
2013-03-25 18:40:00,48.0,42.1,29.87,WNW,292,0.0,0.0,80,0.00,OVC,SKC,0.00,0.0,WeatherDisplay:10.37,2013-03-26 01:40:00,
2013-03-25 18:46:00,47.0,40.8,29.87,WNW,292,0.0,0.0,79,0.00,OVC,SKC,0.00,0.0,WeatherDisplay:10.37,2013-03-26 01:46:00,
2013-03-25 18:52:00,47.0,41.1,29.87,WNW,292,0.0,0.0,80,0.00,OVC,SKC,0.00,0.0,WeatherDisplay:10.37,2013-03-26 01:52:00,
2013-03-25 18:57:00,47.0,41.1,29.87,WNW,292,0.0,0.0,80,0.00,OVC,SKC,0.00,0.0,WeatherDisplay:10.37,2013-03-26 01:57:00,
2013-03-25 19:02:00,47.0,40.8,29.86,WNW,292,0.0,0.0,79,0.00,OVC,SKC,0.00,0.0,WeatherDisplay:10.37,2013-03-26 02:02:00,
2013-03-25 19:07:00,46.0,40.2,29.86,WNW,292,0.0,0.0,80,0.00,OVC,SKC,0.00,0.0,WeatherDisplay:10.37,2013-03-26 02:07:00,
2013-03-25 19:12:00,46.0,40.5,29.86,WNW,292,0.0,0.0,81,0.00,OVC,SKC,0.00,0.0,WeatherDisplay:10.37,2013-03-26 02:12:00,
2013-03-25 19:17:00,45.0,39.5,29.86,WNW,292,0.0,0.0,81,0.00,OVC,SKC,0.00,0.0,WeatherDisplay:10.37,2013-03-26 02:17:00,
2013-03-25 19:22:00,45.0,39.5,29.86,WNW,292,0.0,0.0,81,0.00,OVC,SKC,0.00,0.0,WeatherDisplay:10.37,2013-03-26 02:22:00,
2013-03-25 19:27:00,45.0,39.5,29.86,WNW,292,0.0,0.0,81,0.00,OVC,SKC,0.00,0.0,WeatherDisplay:10.37,2013-03-26 02:27:00,
2013-03-25 19:32:00,44.0,38.5,29.86,WNW,292,0.0,0.0,81,0.00,OVC,SKC,0.00,0.0,WeatherDisplay:10.37,2013-03-26 02:32:00,
2013-03-25 19:37:00,43.0,37.9,29.86,WNW,292,0.0,0.0,82,0.00,OVC,SKC,0.00,0.0,WeatherDisplay:10.37,2013-03-26 02:37:00,
2013-03-25 19:42:00,43.0,36.9,29.86,WNW,292,0.0,0.0,79,0.00,OVC,SKC,0.00,0.0,WeatherDisplay:10.37,2013-03-26 02:42:00,
2013-03-25 19:47:00,43.0,37.6,29.85,WNW,292,0.0,0.0,81,0.00,OVC,SKC,0.00,0.0,WeatherDisplay:10.37,2013-03-26 02:47:00,
2013-03-25 19:52:00,43.0,36.9,29.85,WNW,292,0.0,0.0,79,0.00,OVC,SKC,0.00,0.0,WeatherDisplay:10.37,2013-03-26 02:52:00,
2013-03-25 19:57:00,42.0,35.6,29.85,WNW,292,0.0,0.0,78,0.00,OVC,SKC,0.00,0.0,WeatherDisplay:10.37,2013-03-26 02:57:00,
2013-03-25 20:02:00,42.0,35.6,29.85,WNW,292,0.0,0.0,78,0.00,CLR,SKC,0.00,0.0,WeatherDisplay:10.37,2013-03-26 03:02:00,
2013-03-25 20:07:00,42.0,35.0,29.85,WNW,292,0.0,0.0,76,0.00,CLR,SKC,0.00,0.0,WeatherDisplay:10.37,2013-03-26 03:07:00,
2013-03-25 20:12:00,42.0,34.0,29.85,WNW,292,0.0,0.0,73,0.00,CLR,SKC,0.00,0.0,WeatherDisplay:10.37,2013-03-26 03:12:00,
2013-03-25 20:18:00,42.0,34.0,29.85,WNW,292,0.0,0.0,73,0.00,CLR,SKC,0.00,0.0,WeatherDisplay:10.37,2013-03-26 03:18:00,
2013-03-25 20:23:00,42.0,32.2,29.85,WNW,292,0.0,0.0,68,0.00,CLR,SKC,0.00,0.0,WeatherDisplay:10.37,2013-03-26 03:23:00,
2013-03-25 20:28:00,41.0,31.2,29.85,WNW,292,0.0,0.0,68,0.00,CLR,SKC,0.00,0.0,WeatherDisplay:10.37,2013-03-26 03:28:00,
2013-03-25 20:34:00,41.0,31.6,29.85,WNW,292,0.0,0.0,69,0.00,CLR,SKC,0.00,0.0,WeatherDisplay:10.37,2013-03-26 03:34:00,
2013-03-25 20:39:00,40.0,29.2,29.85,WNW,292,0.0,0.0,65,0.00,CLR,SKC,0.00,0.0,WeatherDisplay:10.37,2013-03-26 03:39:00,
2013-03-25 20:44:00,40.0,28.8,29.85,WNW,292,0.0,0.0,64,0.00,CLR,SKC,0.00,0.0,WeatherDisplay:10.37,2013-03-26 03:44:00,
2013-03-25 20:49:00,39.0,24.6,29.85,WNW,292,0.0,0.0,56,0.00,CLR,SKC,0.00,0.0,WeatherDisplay:10.37,2013-03-26 03:49:00,
2013-03-25 20:54:00,39.0,16.1,29.85,WNW,292,0.0,0.0,39,0.00,CLR,SKC,0.00,0.0,WeatherDisplay:10.37,2013-03-26 03:54:00,
2013-03-25 20:59:00,39.0,13.6,29.84,WNW,292,0.0,0.0,35,0.00,CLR,SKC,0.00,0.0,WeatherDisplay:10.37,2013-03-26 03:59:00,
2013-03-25 21:00:00,39.0,7.8,29.84,WNW,292,0.0,0.0,27,0.00,CLR,SKC,0.00,0.0,WeatherDisplay:10.37,2013-03-26 04:00:00,
2013-03-25 21:02:00,38.0,-0.7,29.84,WNW,292,0.0,0.0,19,0.00,CLR,SKC,0.00,0.0,WeatherDisplay:10.37,2013-03-26 04:02:00,
2013-03-25 21:06:00,38.0,-4.3,29.84,WNW,292,0.0,0.0,16,0.00,CLR,SKC,0.00,0.0,WeatherDisplay:10.37,2013-03-26 04:06:00,
2013-03-25 21:11:00,38.0,-16.0,29.84,WNW,292,0.0,0.0,9,0.00,CLR,SKC,0.00,0.0,WeatherDisplay:10.37,2013-03-26 04:11:00,
2013-03-25 21:17:00,38.0,-13.9,29.84,WNW,292,0.0,0.0,10,0.00,CLR,SKC,0.00,0.0,WeatherDisplay:10.37,2013-03-26 04:17:00,
2013-03-25 21:22:00,38.0,99.9,29.84,WNW,292,0.0,0.0,0,0.00,CLR,SKC,0.00,0.0,WeatherDisplay:10.37,2013-03-26 04:22:00,
2013-03-25 21:26:00,38.0,99.9,29.84,WNW,292,0.0,0.0,0,0.00,CLR,SKC,0.00,0.0,WeatherDisplay:10.37,2013-03-26 04:26:00,
2013-03-25 21:31:00,37.0,99.9,29.84,WNW,292,0.0,0.0,0,0.00,CLR,SKC,0.00,0.0,WeatherDisplay:10.37,2013-03-26 04:31:00,
2013-03-25 21:36:00,37.0,99.9,29.84,WNW,292,0.0,0.0,0,0.00,CLR,SKC,0.00,0.0,WeatherDisplay:10.37,2013-03-26 04:36:00,
2013-03-25 21:41:00,37.0,99.9,29.84,WNW,292,0.0,0.0,0,0.00,CLR,SKC,0.00,0.0,WeatherDisplay:10.37,2013-03-26 04:41:00,
2013-03-25 21:46:00,37.0,99.9,29.84,WNW,292,0.0,0.0,0,0.00,CLR,SKC,0.00,0.0,WeatherDisplay:10.37,2013-03-26 04:46:00,
2013-03-25 21:51:00,38.0,99.9,29.84,WNW,292,0.0,0.0,0,0.00,CLR,SKC,0.00,0.0,WeatherDisplay:10.37,2013-03-26 04:51:00,
2013-03-25 21:57:00,38.0,99.9,29.84,WNW,292,0.0,0.0,0,0.00,CLR,SKC,0.00,0.0,WeatherDisplay:10.37,2013-03-26 04:57:00,
2013-03-25 22:02:00,38.0,99.9,29.84,WNW,292,0.0,0.0,0,0.00,CLR,SKC,0.00,0.0,WeatherDisplay:10.37,2013-03-26 05:02:00,
2013-03-25 22:07:00,38.0,99.9,29.85,WNW,292,0.0,0.0,0,0.00,CLR,SKC,0.00,0.0,WeatherDisplay:10.37,2013-03-26 05:07:00,
2013-03-25 22:12:00,39.0,99.9,29.85,WNW,292,0.0,0.0,0,0.00,CLR,SKC,0.00,0.0,WeatherDisplay:10.37,2013-03-26 05:12:00,
2013-03-25 22:17:00,39.0,99.9,29.85,WNW,292,0.0,0.0,0,0.00,CLR,SKC,0.00,0.0,WeatherDisplay:10.37,2013-03-26 05:17:00,
2013-03-25 22:22:00,39.0,99.9,29.85,WNW,292,0.0,0.0,0,0.00,CLR,SKC,0.00,0.0,WeatherDisplay:10.37,2013-03-26 05:22:00,
2013-03-25 22:27:00,39.0,99.9,29.85,WNW,292,0.0,0.0,0,0.00,CLR,SKC,0.00,0.0,WeatherDisplay:10.37,2013-03-26 05:27:00,
2013-03-25 22:32:00,39.0,99.9,29.85,WNW,292,0.0,0.0,0,0.00,CLR,SKC,0.00,0.0,WeatherDisplay:10.37,2013-03-26 05:32:00,
2013-03-25 22:37:00,39.0,99.9,29.85,WNW,292,0.0,0.0,0,0.00,CLR,SKC,0.00,0.0,WeatherDisplay:10.37,2013-03-26 05:37:00,
2013-03-25 22:42:00,38.0,99.9,29.85,WNW,292,0.0,0.0,0,0.00,CLR,SKC,0.00,0.0,WeatherDisplay:10.37,2013-03-26 05:42:00,
2013-03-25 22:47:00,38.0,99.9,29.85,WNW,292,0.0,0.0,0,0.00,CLR,SKC,0.00,0.0,WeatherDisplay:10.37,2013-03-26 05:47:00,
2013-03-25 22:52:00,38.0,99.9,29.85,WNW,292,0.0,0.0,0,0.00,CLR,SKC,0.00,0.0,WeatherDisplay:10.37,2013-03-26 05:52:00,
2013-03-25 22:57:00,38.0,99.9,29.85,WNW,292,0.0,0.0,0,0.00,CLR,SKC,0.00,0.0,WeatherDisplay:10.37,2013-03-26 05:57:00,
2013-03-25 23:02:00,38.0,99.9,29.85,WNW,292,0.0,0.0,0,0.00,CLR,SKC,0.00,0.0,WeatherDisplay:10.37,2013-03-26 06:02:00,
2013-03-25 23:07:00,39.0,99.9,29.85,WNW,292,0.0,0.0,0,0.00,CLR,SKC,0.00,0.0,WeatherDisplay:10.37,2013-03-26 06:07:00,
2013-03-25 23:12:00,39.0,99.9,29.85,WNW,292,0.0,0.0,0,0.00,CLR,SKC,0.00,0.0,WeatherDisplay:10.37,2013-03-26 06:12:00,
2013-03-25 23:17:00,38.0,99.9,29.85,WNW,292,0.0,0.0,0,0.00,CLR,SKC,0.00,0.0,WeatherDisplay:10.37,2013-03-26 06:17:00,
2013-03-25 23:22:00,37.0,99.9,29.85,WNW,292,0.0,0.0,0,0.00,CLR,SKC,0.00,0.0,WeatherDisplay:10.37,2013-03-26 06:22:00,
2013-03-25 23:27:00,38.0,99.9,29.85,WNW,292,0.0,0.0,0,0.00,CLR,SKC,0.00,0.0,WeatherDisplay:10.37,2013-03-26 06:27:00,
2013-03-25 23:32:00,38.0,99.9,29.85,WNW,292,0.0,0.0,0,0.00,CLR,SKC,0.00,0.0,WeatherDisplay:10.37,2013-03-26 06:32:00,
2013-03-25 23:37:00,37.0,99.9,29.85,WNW,292,0.0,0.0,0,0.00,CLR,SKC,0.00,0.0,WeatherDisplay:10.37,2013-03-26 06:37:00,
2013-03-25 23:42:00,37.0,99.9,29.85,WNW,292,0.0,0.0,0,0.00,CLR,SKC,0.00,0.0,WeatherDisplay:10.37,2013-03-26 06:42:00,
2013-03-25 23:47:00,37.0,99.9,29.85,WNW,292,0.0,0.0,0,0.00,CLR,SKC,0.00,0.0,WeatherDisplay:10.37,2013-03-26 06:47:00,
2013-03-25 23:52:00,37.0,99.9,29.85,WNW,292,0.0,0.0,0,0.00,CLR,SKC,0.00,0.0,WeatherDisplay:10.37,2013-03-26 06:52:00,
2013-03-25 23:57:00,37.0,99.9,29.85,WNW,292,0.0,0.0,0,0.00,CLR,SKC,0.00,0.0,WeatherDisplay:10.37,2013-03-26 06:57:00,